Location: ??????
(31.2056°N, 45.3906°E)
Time: 18:17:35
(UTC+00:00)

Cosmos 2228 - Pass Details

Date: 09 April 2020
Orbit: 588 x 619 km, 82.5° (Epoch: 27 May)

Event Time Altitude Azimuth Distance (km) Brightness Sun altitude
Rises 15:48:28 0° 168° (SSE) 2,822 6.2 -6.1°
Reaches altitude 10° 15:50:45 10° 160° (SSE) 1,929 5.3 -6.6°
Maximum altitude 15:54:43 39° 92° (E) 914 3.5 -7.4°
Drops below altitude 10° 15:58:45 10° 23° (NNE) 1,958 5.5 -8.3°
Sets 16:01:04 0° 16° (NNE) 2,871 6.5 -8.8°
